This demonstration page uses our WeatherBlox Daily Observations layout. Learn more.

Left ArrowRight Arrow

41.55636, -103.73856

Hourly Observations for February 16, 2018

Temp ( °F °C ) Dew Point ( °F °C ) Humidity (%) Winds ( mph kmh ) Pressure ( in mb ) Visibility ( mi km ) Precip ( " mm )
12:53 am 00:53 Clear 16 -8.9 11 -11.7 80 80 N N/A 30.45 1031 10 16 N/A
1:53 am 01:53 Clear 15 -9.4 10 -12.2 80 80 W 3 6 30.43 1031 10 16 N/A
2:53 am 02:53 Clear 14 -10 10 -12.2 84 84 E 3 6 30.43 1031 10 16 N/A
3:53 am 03:53 Clear 14 -10 10 -12.2 84 84 N N/A 30.42 1030 10 16 N/A
4:53 am 04:53 Clear 14 -10 10 -12.2 84 84 E 5 7 30.41 1030 10 16 N/A
5:53 am 05:53 Clear 12 -11.1 8 -13.3 84 84 ESE 3 6 30.40 1029 10 16 N/A
6:53 am 06:53 Sunny 12 -11.1 9 -12.8 87 87 E 6 9 30.38 1029 10 16 N/A
7:53 am 07:53 Sunny 20 -6.7 14 -10 78 78 SSW 10 17 30.35 1028 10 16 N/A
8:53 am 08:53 Sunny 27 -2.8 18 -7.8 69 69 SSW 14 22 30.32 1027 10 16 N/A
9:53 am 09:53 Sunny 32 undefined 18 -7.8 56 56 SW 21 33 30.27 1025 10 16 N/A
10:53 am 10:53 Sunny 35 1.7 17 -8.3 48 48 SSW 17 28 30.23 1024 10 16 N/A
11:53 am 11:53 Sunny 39 3.9 20 -6.7 46 46 SW 18 30 30.16 1021 10 16 N/A
12:53 pm 12:53 Sunny 40 4.4 20 -6.7 45 45 SSW 18 30 30.10 1019 10 16 N/A
1:53 pm 13:53 Sunny 43 6.1 19 -7.2 38 38 SSW 9 15 30.03 1017 10 16 N/A
2:53 pm 14:53 Sunny 46 7.8 17 -8.3 31 31 SSW 13 20 29.97 1015 10 16 N/A
3:53 pm 15:53 Sunny 47 8.3 15 -9.4 28 28 W 12 19 29.93 1014 10 16 N/A
4:53 pm 16:53 Sunny 41 5 18 -7.8 39 39 W 6 9 29.92 1013 10 16 N/A
5:53 pm 17:53 Clear 38 3.3 19 -7.2 46 46 WSW 8 13 29.93 1014 10 16 N/A
6:53 pm 18:53 Cloudy 37 2.8 21 -6.1 52 52 NW 5 7 29.92 1013 10 16 N/A
7:53 pm 19:53 Cloudy 41 5 13 -10.6 32 32 W 20 31 29.88 1012 10 16 N/A
8:53 pm 20:53 Cloudy 41 5 16 -8.9 36 36 W 7 11 29.87 1012 10 16 N/A
9:53 pm 21:53 Cloudy 40 4.4 18 -7.8 41 41 W 35 56 29.86 1011 10 16 N/A
10:53 pm 22:53 Mostly Clear 37 2.8 19 -7.2 48 48 W 21 33 29.87 1011 10 16 N/A
11:53 pm 23:53 Clear 35 1.7 18 -7.8 50 50 W 17 28 29.87 1012 10 16 N/A

Powered by AerisWeather